Date Time,Air Temp,Sky Temp,Clarity,Light Level,Rain Sensor,Readings
2010-07-23 00:00:11,25.3,-6.5,31.8,0.3,2.3,112
2010-07-23 00:05:11,25.3,-7.1,32.4,0.3,2.3,112
2010-07-23 00:10:11,25.2,-7.6,32.8,0.3,2.3,111
2010-07-23 00:15:11,25.2,-7.5,32.6,0.2,2.3,111
2010-07-23 00:20:11,25.3,-7.3,32.5,0.2,2.3,112
2010-07-23 00:25:11,25.3,-8.0,33.3,0.2,2.3,111
2010-07-23 00:30:11,25.2,-7.0,32.2,0.2,2.3,112
2010-07-23 00:35:11,25.2,-6.9,32.1,0.2,2.3,112
2010-07-23 00:40:11,25.1,-7.7,32.8,0.2,2.3,111
2010-07-23 00:45:11,25.1,-7.7,32.8,0.2,2.3,112
2010-07-23 00:50:11,25.0,-7.5,32.5,0.2,2.3,110
2010-07-23 00:55:11,24.9,-7.7,32.6,0.2,2.3,111
2010-07-23 01:00:11,24.9,-7.8,32.7,0.2,2.3,111
2010-07-23 01:05:11,24.9,-7.8,32.7,0.2,2.3,111
2010-07-23 01:10:11,24.9,-7.4,32.3,0.2,2.3,112
2010-07-23 01:15:11,24.9,-7.0,31.9,0.1,2.3,111
2010-07-23 01:20:11,24.9,-7.3,32.2,0.1,2.3,112
2010-07-23 01:25:11,24.9,-6.9,31.8,0.0,2.3,112
2010-07-23 01:30:11,24.9,-4.5,29.5,0.1,2.3,111
2010-07-23 01:35:11,25.0,-3.4,28.4,0.1,2.3,111
2010-07-23 01:40:11,25.0,-7.0,31.9,0.1,2.3,112
2010-07-23 01:45:11,24.9,-7.1,32.0,0.1,2.3,112
2010-07-23 01:50:11,25.0,-6.9,31.9,0.0,2.3,111
2010-07-23 01:55:11,25.0,-7.0,32.0,0.0,2.3,112
2010-07-23 02:00:11,25.0,-7.0,32.0,0.0,2.3,111
2010-07-23 02:05:11,25.0,-7.1,32.0,0.0,2.3,111
2010-07-23 02:10:11,25.0,-7.0,32.0,0.0,2.3,112
2010-07-23 02:15:11,25.0,-7.2,32.2,0.0,2.3,111
2010-07-23 02:20:11,24.4,-7.7,32.1,0.0,2.3,112
2010-07-23 02:25:11,24.7,-8.2,32.9,0.0,2.3,112
2010-07-23 02:30:11,24.7,-7.4,32.1,0.0,2.3,111
2010-07-23 02:35:11,24.8,-7.4,32.1,0.0,2.3,112
2010-07-23 02:40:11,24.8,-7.4,32.2,0.0,2.3,111
2010-07-23 02:45:11,24.8,-7.2,32.0,0.0,2.3,112
2010-07-23 02:50:11,25.0,-7.1,32.1,0.0,2.3,111
2010-07-23 02:55:11,25.0,-7.2,32.2,0.0,2.3,112
2010-07-23 03:00:11,25.0,-7.3,32.3,0.0,2.3,111
2010-07-23 03:05:11,24.9,-7.3,32.3,0.0,2.3,111
2010-07-23 03:10:11,24.9,-7.5,32.4,0.0,2.3,112
2010-07-23 03:15:11,24.8,-7.6,32.4,0.0,2.3,111
2010-07-23 03:20:11,24.7,-7.4,32.2,0.0,2.3,111
2010-07-23 03:25:11,24.8,-7.3,32.1,0.0,2.3,112
2010-07-23 03:30:11,24.8,-7.6,32.5,0.0,2.3,111
2010-07-23 03:35:11,24.8,-8.9,33.7,0.0,2.3,111
2010-07-23 03:40:11,24.8,-7.3,32.1,0.0,2.3,111
2010-07-23 03:45:11,24.7,-7.7,32.4,0.0,2.3,112
2010-07-23 03:50:11,24.7,-7.6,32.3,0.1,2.3,111
2010-07-23 03:55:11,24.8,-7.5,32.3,0.1,2.3,112
2010-07-23 04:00:11,24.9,-6.9,31.7,0.2,2.3,112
2010-07-23 04:05:11,24.8,-6.9,31.7,0.3,2.3,111
2010-07-23 04:10:11,24.7,-7.0,31.7,0.5,2.3,112
2010-07-23 04:15:11,24.6,-7.9,32.4,0.7,2.3,111
2010-07-23 04:20:11,24.4,-7.4,31.9,1.2,2.3,112
2010-07-23 04:25:11,24.3,-7.5,31.9,1.8,2.3,111
2010-07-23 04:30:11,24.3,-7.1,31.4,3.0,2.3,112
2010-07-23 04:35:11,24.3,-6.2,30.5,5.0,2.3,111
2010-07-23 04:40:11,24.4,-6.4,30.8,7.8,2.3,112
2010-07-23 04:45:11,24.4,-7.7,32.1,11.7,2.3,111
2010-07-23 04:50:11,24.3,-7.9,32.2,16.2,2.3,112
2010-07-23 04:55:11,24.3,-5.0,29.2,20.6,2.3,111
2010-07-23 05:00:11,24.2,-7.4,31.7,24.4,2.3,111
2010-07-23 05:05:11,24.2,-6.4,30.6,27.1,2.3,112
2010-07-23 05:10:11,24.3,-7.3,31.6,28.8,2.3,112
2010-07-23 05:15:11,24.3,-7.8,32.1,29.9,2.3,111
2010-07-23 05:20:11,24.4,-7.4,31.8,30.5,2.3,111
2010-07-23 05:25:11,24.4,-7.8,32.1,31.1,2.3,111
2010-07-23 05:30:11,24.3,-7.7,32.0,31.4,2.3,112
2010-07-23 05:35:11,24.3,-7.7,32.0,31.6,2.3,111
2010-07-23 05:40:11,24.4,-6.6,31.0,31.8,2.3,112
2010-07-23 05:45:11,24.5,-6.7,31.2,31.9,2.3,112
2010-07-23 05:50:11,24.5,-6.8,31.3,32.0,2.3,112
2010-07-23 05:55:11,24.3,-2.8,27.1,32.0,2.3,111
2010-07-23 06:00:11,24.3,3.1,21.1,32.0,2.3,112
2010-07-23 06:05:11,21.5,8.3,13.2,32.0,2.3,111
2010-07-23 06:10:11,20.5,10.5,10.0,31.9,2.3,112
2010-07-23 06:15:11,20.3,10.4,9.9,32.1,2.3,111
2010-07-23 06:20:11,20.3,8.8,11.5,32.2,2.3,112
2010-07-23 06:25:11,20.3,6.3,13.9,32.3,2.3,111
2010-07-23 06:30:11,21.7,1.3,20.4,32.3,2.3,111
2010-07-23 06:35:11,23.3,4.6,18.7,32.3,2.3,111
2010-07-23 06:40:11,22.5,0.9,21.6,32.4,2.3,112
2010-07-23 06:45:11,25.0,-5.6,30.6,32.3,2.3,111
2010-07-23 06:50:11,25.6,-6.0,31.6,32.3,2.3,112
2010-07-23 06:55:11,24.9,4.1,20.8,32.4,2.3,112
2010-07-23 07:00:11,24.4,-1.6,26.0,32.3,2.3,111
2010-07-23 07:05:11,25.3,-1.0,26.2,32.3,2.3,112
2010-07-23 07:10:11,23.1,9.7,13.4,32.4,2.3,111
2010-07-23 07:15:11,21.6,8.2,13.4,32.4,2.3,112
2010-07-23 07:20:11,21.2,7.9,13.4,32.4,2.3,111
2010-07-23 07:25:11,21.1,5.1,16.0,32.4,2.3,112
2010-07-23 07:30:11,21.5,4.1,17.4,32.4,2.3,111
2010-07-23 07:35:11,21.3,6.1,15.2,32.5,2.3,112
2010-07-23 07:40:11,21.5,1.7,19.8,32.4,2.3,112
2010-07-23 07:45:11,24.4,-5.9,30.4,32.4,2.3,111
2010-07-23 07:50:11,26.0,-6.4,32.4,32.4,2.3,112
2010-07-23 07:55:11,26.7,-7.4,34.1,32.4,2.3,111
2010-07-23 08:00:11,27.0,-7.5,34.5,32.4,2.3,112
2010-07-23 08:05:11,27.1,-7.2,34.3,32.4,1.7,111
2010-07-23 08:10:11,27.3,-7.2,34.5,32.4,1.5,112
2010-07-23 08:15:11,27.4,-7.2,34.5,32.4,1.4,111
2010-07-23 08:20:11,27.4,-6.6,33.9,32.4,1.2,112
2010-07-23 08:25:11,27.5,-5.2,32.7,32.4,1.3,111
2010-07-23 08:30:11,27.7,-2.9,30.6,32.5,1.1,112
2010-07-23 08:35:11,28.0,-3.9,32.0,32.5,1.2,112
2010-07-23 08:40:11,27.9,-3.8,31.6,32.5,1.2,111
2010-07-23 08:45:11,27.8,-3.0,30.8,32.5,1.1,112
2010-07-23 08:50:11,27.8,-3.1,30.8,32.5,1.1,112
2010-07-23 08:55:11,27.9,-1.5,29.4,32.5,1.1,111
2010-07-23 09:00:11,28.1,2.2,25.9,32.5,1.3,112
2010-07-23 09:05:11,28.3,0.2,28.0,32.5,1.3,111
2010-07-23 09:10:11,28.4,-1.5,29.9,32.5,1.5,112
2010-07-23 09:15:11,28.5,-0.9,29.4,32.5,1.6,112
2010-07-23 09:20:11,28.6,4.2,24.4,32.5,1.6,111
2010-07-23 09:25:11,28.6,-4.5,33.1,32.5,1.6,112
2010-07-23 09:30:11,28.8,-3.6,32.4,32.5,1.6,112
2010-07-23 09:35:11,29.3,-4.6,33.9,32.5,1.9,111
2010-07-23 09:40:11,29.6,-5.2,34.8,32.5,2.1,112
2010-07-23 09:45:11,29.7,-3.7,33.4,32.5,2.2,112
2010-07-23 09:50:11,29.8,-4.3,34.2,32.5,2.3,111
2010-07-23 09:55:11,30.0,-3.3,33.3,32.5,2.3,112
2010-07-23 10:00:11,30.1,-2.9,33.1,32.5,2.3,112
2010-07-23 10:05:11,30.3,-3.0,33.3,32.6,2.3,111
2010-07-23 10:10:11,29.9,-3.5,33.3,32.6,2.3,112
2010-07-23 10:15:11,30.6,-3.9,34.4,32.6,2.5,112
2010-07-23 10:20:11,30.7,-3.6,34.2,32.6,2.5,112
2010-07-23 10:25:11,30.8,-3.4,34.2,32.6,2.6,112
2010-07-23 10:30:11,30.8,-3.6,34.5,32.6,2.7,112
2010-07-23 10:35:11,30.8,-3.1,33.9,32.6,2.7,111
2010-07-23 10:40:11,31.0,-3.0,33.9,32.6,2.7,112
2010-07-23 10:45:11,31.0,-1.7,32.7,32.6,2.7,112
2010-07-23 10:50:11,31.2,-0.9,32.1,32.6,2.4,112
2010-07-23 10:55:11,31.3,-0.2,31.5,32.6,2.3,111
2010-07-23 11:00:11,31.8,2.8,29.0,32.6,2.3,112
2010-07-23 11:05:11,31.8,2.7,29.2,32.6,2.3,111
2010-07-23 11:10:11,30.8,9.1,21.7,32.6,2.4,112
2010-07-23 11:15:11,27.0,10.8,16.1,32.6,2.1,111
2010-07-23 11:20:11,24.9,10.8,14.1,32.5,1.4,112
2010-07-23 11:25:11,24.2,11.6,12.6,32.6,1.0,111
2010-07-23 11:30:11,24.7,11.8,12.8,32.6,1.1,111
2010-07-23 11:35:11,25.7,8.0,17.8,32.6,1.5,112
2010-07-23 11:40:11,28.8,3.9,24.9,32.6,2.1,111
2010-07-23 11:45:11,30.4,5.4,25.0,32.6,2.4,112
2010-07-23 11:50:11,30.9,5.5,25.4,32.6,2.7,111
2010-07-23 11:55:11,31.6,7.5,24.1,32.6,2.4,112
2010-07-23 12:00:11,30.0,11.1,18.9,32.6,2.6,112
2010-07-23 12:05:11,28.1,8.0,20.1,32.6,2.5,111
2010-07-23 12:10:11,31.6,1.5,30.2,32.6,2.5,111
2010-07-23 12:15:11,33.5,2.7,30.8,32.6,2.4,111
2010-07-23 12:20:11,34.5,3.4,31.1,32.6,2.4,112
2010-07-23 12:25:11,34.1,2.0,32.1,32.6,2.4,111
2010-07-23 12:30:11,33.5,3.6,30.0,32.6,2.4,111
2010-07-23 12:35:11,34.4,5.1,29.2,32.6,2.4,112
2010-07-23 12:40:11,35.1,3.8,31.3,32.6,2.4,111
2010-07-23 12:45:11,33.9,3.8,30.2,32.6,2.3,111
2010-07-23 12:50:11,33.1,9.0,24.1,32.6,2.4,112
2010-07-23 12:55:11,33.4,8.2,25.3,32.6,2.4,111
2010-07-23 13:00:11,33.9,9.5,24.4,32.6,2.4,112
2010-07-23 13:05:11,34.2,10.1,24.2,32.6,2.4,111
2010-07-23 13:10:11,33.5,9.1,24.5,32.6,2.3,112
2010-07-23 13:15:11,33.1,9.4,23.7,32.6,2.3,111
2010-07-23 13:20:11,33.2,10.0,23.2,32.6,2.4,112
2010-07-23 13:25:11,33.4,10.4,23.0,32.6,2.4,112
2010-07-23 13:30:11,33.9,11.5,22.4,32.6,2.4,111
2010-07-23 13:35:11,34.1,11.9,22.2,32.6,2.3,112
2010-07-23 13:40:11,33.1,10.6,22.6,32.6,2.3,111
2010-07-23 13:45:11,32.4,11.7,20.7,32.6,2.3,112
2010-07-23 13:50:11,31.7,11.9,19.9,32.6,2.3,111
2010-07-23 13:55:11,30.0,11.4,18.6,32.6,2.3,111
2010-07-23 14:00:11,28.5,11.5,17.1,32.6,2.5,112
2010-07-23 14:05:11,27.8,11.0,16.8,32.6,2.8,111
2010-07-23 14:10:11,27.5,11.1,16.4,32.6,2.6,111
2010-07-23 14:15:11,27.5,10.7,16.8,32.6,2.6,111
2010-07-23 14:20:11,27.6,11.7,15.9,32.6,2.6,112
2010-07-23 14:25:11,28.3,11.4,16.9,32.6,2.9,111
2010-07-23 14:30:11,28.2,11.3,16.9,32.6,2.8,111
2010-07-23 14:35:11,28.2,11.5,16.8,32.6,2.8,112
2010-07-23 14:40:11,28.2,11.4,16.7,32.6,2.9,111
2010-07-23 14:45:11,28.7,10.1,18.6,32.6,2.7,111
2010-07-23 14:50:11,32.7,5.8,26.9,32.6,2.4,112
2010-07-23 14:55:11,35.6,6.5,29.2,32.6,2.4,111
2010-07-23 15:00:11,37.2,6.1,31.1,32.6,2.4,112
2010-07-23 15:05:11,36.4,8.6,27.7,32.6,2.3,111
2010-07-23 15:10:11,36.0,10.2,25.7,32.6,2.4,112
2010-07-23 15:15:11,36.3,12.6,23.7,32.6,2.4,111
2010-07-23 15:20:11,38.6,10.3,28.3,32.6,2.4,111
2010-07-23 15:25:11,39.0,11.2,27.8,32.6,2.3,112
2010-07-23 15:30:11,36.1,11.6,24.5,32.6,2.3,111
2010-07-23 15:35:11,34.3,11.1,23.2,32.5,2.3,111
2010-07-23 15:40:11,32.9,10.6,22.3,32.5,2.3,112
2010-07-23 15:45:11,31.8,11.2,20.5,32.6,2.3,111
2010-07-23 15:50:11,32.3,10.7,21.6,32.6,2.3,112
2010-07-23 15:55:11,33.1,9.7,23.4,32.6,2.3,112
2010-07-23 16:00:11,33.4,9.2,24.2,32.6,2.4,111
2010-07-23 16:05:11,34.3,8.8,25.5,32.6,2.4,111
2010-07-23 16:10:11,34.3,9.2,25.1,32.6,2.3,112
2010-07-23 16:15:11,34.1,9.8,24.2,32.6,2.3,111
2010-07-23 16:20:11,33.6,10.6,22.9,32.5,2.3,112
2010-07-23 16:25:11,32.8,11.1,21.7,32.5,2.3,111
2010-07-23 16:30:11,32.0,10.4,21.6,32.5,2.3,112
2010-07-23 16:35:11,31.6,10.9,20.7,32.5,2.3,111
2010-07-23 16:40:11,30.8,11.2,19.7,32.6,2.3,111
2010-07-23 16:45:11,28.4,11.2,17.2,32.6,2.4,112
2010-07-23 16:50:11,27.5,11.7,15.9,32.6,2.8,111
2010-07-23 16:55:11,27.7,11.2,16.4,32.6,2.9,111
2010-07-23 17:00:11,27.6,9.5,18.1,32.6,2.8,112
2010-07-23 17:05:11,27.1,9.3,17.8,32.6,2.6,111
2010-07-23 17:10:11,26.8,8.0,18.8,32.6,2.5,112
2010-07-23 17:15:11,27.1,7.6,19.5,32.6,2.5,111
2010-07-23 17:20:11,27.2,8.4,18.8,32.6,2.5,111
2010-07-23 17:25:11,27.0,8.7,18.3,32.6,2.4,112
2010-07-23 17:30:11,26.8,8.4,18.4,32.6,2.4,111
2010-07-23 17:35:11,27.0,7.5,19.4,32.6,2.4,112
2010-07-23 17:40:11,29.5,5.8,23.7,32.5,2.5,111
2010-07-23 17:45:11,30.7,5.1,25.5,32.5,2.3,112
2010-07-23 17:50:11,30.9,7.1,23.8,32.5,2.3,111
2010-07-23 17:55:11,31.0,9.6,21.4,32.5,2.3,112
2010-07-23 18:00:11,31.0,10.3,20.8,32.5,2.3,111
2010-07-23 18:05:11,30.5,10.3,20.2,32.5,2.3,112
2010-07-23 18:10:11,30.8,8.9,22.0,32.5,2.3,111
2010-07-23 18:15:11,31.2,7.5,23.7,32.5,2.3,111
2010-07-23 18:20:11,31.3,5.8,25.4,32.5,2.3,112
2010-07-23 18:25:11,31.1,6.5,24.7,32.5,2.3,111
2010-07-23 18:30:11,31.1,7.6,23.5,32.5,2.3,111
2010-07-23 18:35:11,30.5,7.9,22.5,32.5,2.3,112
2010-07-23 18:40:11,31.1,8.3,22.8,32.5,2.3,111
2010-07-23 18:45:11,31.2,5.8,25.4,32.5,2.3,112
2010-07-23 18:50:11,31.1,7.3,23.9,32.5,2.3,111
2010-07-23 18:55:11,31.1,9.2,21.9,32.4,2.3,111
2010-07-23 19:00:11,31.1,9.5,21.6,32.4,2.3,112
2010-07-23 19:05:11,31.1,10.1,21.0,32.4,2.3,112
2010-07-23 19:10:11,30.9,10.2,20.8,32.4,2.3,112
2010-07-23 19:15:11,30.8,10.1,20.6,32.4,2.3,111
2010-07-23 19:20:11,30.7,9.8,21.0,32.4,2.3,112
2010-07-23 19:25:11,30.7,8.9,21.8,32.4,2.3,111
2010-07-23 19:30:11,30.8,8.7,22.0,32.4,2.3,111
2010-07-23 19:35:11,30.7,9.3,21.4,32.4,2.3,112
2010-07-23 19:40:11,30.8,9.2,21.5,32.4,2.3,111
2010-07-23 19:45:11,30.8,9.2,21.7,32.4,2.3,112
2010-07-23 19:50:11,30.8,7.4,23.4,32.4,2.3,111
2010-07-23 19:55:11,30.6,5.7,24.9,32.3,2.3,112
2010-07-23 20:00:11,30.4,6.1,24.3,32.3,2.6,111
2010-07-23 20:05:11,30.3,5.3,24.9,32.2,2.7,112
2010-07-23 20:10:11,30.2,5.9,24.2,32.2,2.6,111
2010-07-23 20:15:11,30.0,8.1,21.9,32.1,2.7,112
2010-07-23 20:20:11,29.9,8.6,21.2,32.1,2.7,112
2010-07-23 20:25:11,29.7,9.4,20.2,31.9,2.6,111
2010-07-23 20:30:11,26.8,10.1,16.7,31.8,2.3,112
2010-07-23 20:35:11,25.2,9.9,15.3,31.6,1.8,112
2010-07-23 20:40:11,24.6,9.3,15.2,31.5,1.5,112
2010-07-23 20:45:11,24.2,8.3,15.9,31.5,1.3,111
2010-07-23 20:50:11,24.0,6.2,17.8,31.5,1.1,112
2010-07-23 20:55:11,25.2,2.1,23.1,31.4,1.2,111
2010-07-23 21:00:11,27.6,-2.3,29.9,31.2,1.7,112
2010-07-23 21:05:11,28.1,-3.8,31.9,30.7,1.9,112
2010-07-23 21:10:11,28.2,-4.0,32.3,30.1,1.9,111
2010-07-23 21:15:11,28.1,-5.0,33.1,28.9,1.9,111
2010-07-23 21:20:11,28.0,-4.6,32.6,27.3,1.8,112
2010-07-23 21:25:11,27.9,-3.5,31.4,24.8,1.7,113
2010-07-23 21:30:11,27.8,-3.4,31.2,21.2,1.6,112
2010-07-23 21:35:11,27.8,-3.4,31.2,17.0,1.6,112
2010-07-23 21:40:11,27.7,-4.5,32.2,12.5,1.5,112
2010-07-23 21:45:11,27.6,-5.8,33.4,8.6,1.5,110
2010-07-23 21:50:11,27.0,-5.7,32.7,5.5,1.5,111
2010-07-23 21:55:11,27.5,-5.7,33.2,3.4,1.5,111
2010-07-23 22:00:11,27.5,-5.6,33.1,2.0,1.4,111
2010-07-23 22:05:11,27.5,-5.4,32.9,1.2,1.4,112
2010-07-23 22:10:11,27.5,-5.3,32.7,0.8,1.4,111
2010-07-23 22:15:11,27.4,-5.2,32.6,0.6,1.3,110
2010-07-23 22:20:11,26.9,-5.1,32.0,0.4,1.3,110
2010-07-23 22:25:11,27.5,-4.9,32.4,0.3,1.3,112
2010-07-23 22:30:11,27.5,-4.7,32.3,0.3,1.3,111
2010-07-23 22:35:11,27.4,-3.9,31.3,0.3,1.3,111
2010-07-23 22:40:11,27.4,-3.3,30.8,0.3,1.3,112
2010-07-23 22:45:11,27.4,-3.1,30.6,0.3,1.3,113
2010-07-23 22:50:11,27.5,-3.1,30.6,0.2,1.3,112
2010-07-23 22:55:11,27.5,-3.1,30.6,0.2,1.3,112
2010-07-23 23:00:11,27.5,-3.1,30.6,0.2,1.3,113
2010-07-23 23:05:11,27.5,-2.8,30.3,0.2,1.3,111
2010-07-23 23:10:11,27.5,-2.1,29.7,0.2,1.3,112
2010-07-23 23:15:11,27.6,-2.1,29.7,0.2,1.3,112
2010-07-23 23:20:11,27.6,-2.6,30.2,0.2,1.4,111
2010-07-23 23:25:11,27.6,-2.5,30.1,0.2,1.4,111
2010-07-23 23:30:11,27.7,1.1,26.7,0.2,1.5,111
2010-07-23 23:35:11,27.8,2.1,25.7,0.2,1.5,111
2010-07-23 23:40:11,27.8,0.6,27.1,0.2,1.5,111
2010-07-23 23:45:11,27.7,1.0,26.7,0.2,1.5,111
2010-07-23 23:50:11,27.7,2.1,25.6,0.2,1.5,110
2010-07-23 23:55:11,27.8,1.7,26.0,0.2,1.5,111
